| time (UTC) | temp F | wind direction | speed MPH | gust MPH | rain 1hr in | rain 24hr in | rain mn in | humidity % | barometer mb |
| 20260903031949 | 57 | 97 | 0.0 | 1.0 | 0.05 | 0.65 | 0.65 | 87 | 1011.9 |
| 20260903030447 | 57 | 98 | 0.0 | 1.0 | 0.05 | 0.64 | 0.64 | 87 | 1011.7 |
| 20260903024947 | 57 | 95 | 0.0 | 1.0 | 0.05 | 0.63 | 0.63 | 87 | 1011.6 |
| 20260903023447 | 57 | 96 | 0.0 | 0.0 | 0.06 | 0.62 | 0.62 | 87 | 1011.6 |
| 20260903021948 | 57 | 75 | 0.0 | 0.0 | 0.06 | 0.60 | 0.61 | 87 | 1011.7 |
| 20260903021157 | 57 | 73 | 0.0 | 0.0 | 0.07 | 0.59 | 0.59 | 86 | 1011.8 |
| 20260903014945 | 57 | 331 | 0.0 | 0.0 | 0.08 | 0.58 | 0.58 | 86 | 1011.8 |
| 20260903013449 | 57 | 116 | 0.0 | 1.0 | 0.08 | 0.56 | 0.56 | 86 | 1011.8 |
| 20260903011944 | 57 | 24 | 0.0 | 0.0 | 0.08 | 0.54 | 0.54 | 86 | 1011.6 |
| 20260903010443 | 57 | 23 | 0.0 | 1.0 | 0.08 | 0.52 | 0.52 | 86 | 1011.5 |
| 20260903004943 | 57 | 156 | 0.0 | 1.0 | 0.08 | 0.50 | 0.50 | 86 | 1011.4 |
| 20260903003442 | 57 | 359 | 0.0 | 1.0 | 0.07 | 0.48 | 0.48 | 86 | 1011.6 |
| 20260903001941 | 56 | 354 | 0.0 | 0.0 | 0.07 | 0.46 | 0.46 | 85 | 1011.2 |
| 20260903000439 | 57 | 359 | 0.0 | 0.0 | 0.07 | 0.44 | 0.44 | 85 | 1011.2 |
| 20260902235644 | 57 | 354 | 0.0 | 0.0 | 0.07 | 0.42 | 0.42 | 85 | 1011.3 |
| 20260902233440 | 56 | 359 | 0.0 | 0.0 | 0.08 | 0.41 | 0.41 | 85 | 1011.3 |
| 20260902231939 | 57 | 359 | 0.0 | 0.0 | 0.08 | 0.39 | 0.39 | 85 | 1011.3 |
| 20260902230439 | 56 | 359 | 0.0 | 1.0 | 0.08 | 0.37 | 0.37 | 86 | 1011.5 |
| 20260902224939 | 56 | 332 | 0.0 | 0.0 | 0.08 | 0.35 | 0.35 | 85 | 1011.6 |
| 20260902223439 | 57 | 359 | 0.0 | 0.0 | 0.08 | 0.33 | 0.33 | 85 | 1011.4 |
| 20260902221939 | 57 | 359 | 0.0 | 0.0 | 0.08 | 0.31 | 0.31 | 85 | 1011.5 |
| 20260902220441 | 57 | 331 | 0.0 | 0.0 | 0.08 | 0.29 | 0.29 | 85 | 1011.3 |
| 20260902214940 | 57 | 331 | 0.0 | 0.0 | 0.09 | 0.27 | 0.27 | 85 | 1011.5 |
| 20260902213438 | 57 | 359 | 0.0 | 1.0 | 0.09 | 0.25 | 0.25 | 85 | 1011.6 |
| 20260902211935 | 57 | 285 | 0.0 | 1.0 | 0.10 | 0.23 | 0.23 | 84 | 1011.3 |
| 20260902210435 | 57 | 283 | 0.0 | 1.0 | 0.10 | 0.21 | 0.21 | 84 | 1011.2 |
| 20260902204935 | 57 | 359 | 0.0 | 1.0 | 0.09 | 0.18 | 0.19 | 84 | 1011.1 |
| 20260902204138 | 58 | 284 | 0.0 | 1.0 | 0.08 | 0.16 | 0.16 | 83 | 1011.1 |
| 20260902201935 | 58 | 293 | 0.0 | 0.0 | 0.06 | 0.13 | 0.13 | 82 | 1011.2 |
| 20260902200432 | 58 | 294 | 0.0 | 1.0 | 0.05 | 0.11 | 0.11 | 81 | 1011.2 |
| 20260902194931 | 58 | 301 | 0.0 | 1.0 | 0.04 | 0.09 | 0.09 | 81 | 1011.4 |
| 20260902193432 | 58 | 299 | 0.0 | 1.0 | 0.04 | 0.08 | 0.08 | 81 | 1011.5 |
| 20260902191930 | 58 | 320 | 0.0 | 0.0 | 0.03 | 0.07 | 0.07 | 80 | 1011.4 |
| 20260902190431 | 58 | 83 | 0.0 | 0.0 | 0.03 | 0.06 | 0.06 | 80 | 1011.2 |
| 20260902184929 | 58 | 83 | 0.0 | 0.0 | 0.04 | 0.05 | 0.05 | 80 | 1011.5 |
| 20260902183426 | 58 | 92 | 0.0 | 0.0 | 0.03 | 0.04 | 0.04 | 80 | 1011.4 |
| 20260902181922 | 57 | 114 | 0.0 | 0.0 | 0.03 | 0.04 | 0.04 | 79 | 1011.5 |
| 20260902180421 | 58 | 114 | 0.0 | 0.0 | 0.03 | 0.03 | 0.03 | 80 | 1011.4 |
| 20260902174922 | 57 | 89 | 0.0 | 0.0 | 0.01 | 0.01 | 0.01 | 78 | 1011.3 |
| 20260902173421 | 57 | 61 | 0.0 | 0.0 | 0.01 | 0.01 | 0.01 | 79 | 1011.2 |
| 20260902172623 | 57 | 116 | 0.0 | 1.0 | 0.01 | 0.01 | 0.01 | 77 | 1010.9 |
| 20260902170420 | 57 | 100 | 0.0 | 2.0 | 0.00 | 0.00 | 0.00 | 76 | 1011.0 |
| 20260902164922 | 57 | 112 | 0.0 | 1.0 | 0.00 | 0.00 | 0.00 | 75 | 1010.8 |
| 20260902163421 | 57 | 104 | 0.0 | 1.0 | 0.00 | 0.00 | 0.00 | 73 | 1010.9 |
| 20260902161920 | 57 | 69 | 0.0 | 2.0 | 0.00 | 0.00 | 0.00 | 72 | 1010.8 |
| 20260902160420 | 57 | 122 | 0.0 | 1.0 | 0.00 | 0.00 | 0.00 | 73 | 1010.7 |
| 20260902155617 | 56 | 133 | 0.0 | 1.0 | 0.00 | 0.00 | 0.00 | 74 | 1010.8 |
| 20260902153418 | 56 | 110 | 0.0 | 1.0 | 0.00 | 0.00 | 0.00 | 75 | 1011.0 |
| 20260902151916 | 56 | 110 | 0.0 | 1.0 | 0.00 | 0.00 | 0.00 | 71 | 1011.2 |
| 20260902150417 | 57 | 108 | 0.0 | 1.0 | 0.00 | 0.00 | 0.00 | 70 | 1011.2 |
| 20260902144914 | 56 | 72 | 0.0 | 0.0 | 0.00 | 0.00 | 0.00 | 69 | 1011.1 |
| 20260902143412 | 56 | 59 | 0.0 | 0.0 | 0.00 | 0.00 | 0.00 | 67 | 1011.1 |
| 20260902141908 | 57 | 74 | 0.0 | 1.0 | 0.00 | 0.00 | 0.00 | 67 | 1011.2 |
| 20260902140408 | 57 | 112 | 0.0 | 1.0 | 0.00 | 0.00 | 0.00 | 66 | 1011.1 |
| 20260902134908 | 57 | 112 | 0.0 | 0.0 | 0.00 | 0.00 | 0.00 | 67 | 1011.3 |
| 20260902133408 | 57 | 112 | 0.0 | 0.0 | 0.00 | 0.00 | 0.00 | 67 | 1011.4 |
| 20260902131908 | 56 | 112 | 0.0 | 0.0 | 0.00 | 0.00 | 0.00 | 68 | 1011.3 |
| 20260902131109 | 56 | 112 | 0.0 | 0.0 | 0.00 | 0.00 | 0.00 | 69 | 1011.6 |
| 20260902124910 | 56 | 112 | 0.0 | 0.0 | 0.00 | 0.00 | 0.00 | 69 | 1011.7 |
| 20260902123408 | 56 | 112 | 0.0 | 0.0 | 0.00 | 0.00 | 0.00 | 69 | 1011.8 |
| 20260902121909 | 56 | 112 | 0.0 | 0.0 | 0.00 | 0.00 | 0.00 | 69 | 1011.7 |
| 20260902120405 | 56 | 112 | 0.0 | 0.0 | 0.00 | 0.00 | 0.00 | 68 | 1011.8 |
| 20260902114907 | 56 | 112 | 0.0 | 0.0 | 0.00 | 0.00 | 0.00 | 68 | 1011.8 |
| 20260902113406 | 56 | 112 | 0.0 | 0.0 | 0.00 | 0.00 | 0.00 | 68 | 1011.9 |
| 20260902111906 | 56 | 112 | 0.0 | 0.0 | 0.00 | 0.00 | 0.00 | 68 | 1012.1 |
| 20260902110404 | 56 | 129 | 0.0 | 2.0 | 0.00 | 0.00 | 0.00 | 67 | 1012.4 |
| 20260902105606 | 56 | 120 | 0.0 | 0.0 | 0.00 | 0.00 | 0.00 | 68 | 1012.6 |
| 20260902104055 | 56 | 120 | 0.0 | 0.0 | 0.00 | 0.00 | 0.00 | 69 | 1012.7 |
| 20260902102555 | 56 | 120 | 0.0 | 0.0 | 0.00 | 0.00 | 0.00 | 69 | 1012.7 |
| 20260902100356 | 56 | 120 | 0.0 | 0.0 | 0.00 | 0.00 | 0.00 | 68 | 1012.8 |
| 20260902095543 | 56 | 120 | 0.0 | 0.0 | 0.00 | 0.00 | 0.00 | 67 | 1013.0 |
| 20260902093353 | 57 | 118 | 0.0 | 0.0 | 0.00 | 0.00 | 0.00 | 66 | 1013.1 |
| 20260902091854 | 58 | 118 | 0.0 | 0.0 | 0.00 | 0.00 | 0.00 | 65 | 1013.2 |
| 20260902090353 | 58 | 118 | 0.0 | 0.0 | 0.00 | 0.00 | 0.00 | 64 | 1013.2 |
| 20260902084851 | 58 | 118 | 0.0 | 0.0 | 0.00 | 0.00 | 0.00 | 64 | 1013.4 |
| 20260902083350 | 58 | 118 | 0.0 | 1.0 | 0.00 | 0.00 | 0.00 | 64 | 1013.5 |
| 20260902081851 | 58 | 140 | 0.0 | 1.0 | 0.00 | 0.00 | 0.00 | 65 | 1013.6 |
| 20260902080347 | 57 | 141 | 0.0 | 0.0 | 0.00 | 0.00 | 0.00 | 66 | 1013.5 |
| 20260902074846 | 57 | 141 | 0.0 | 0.0 | 0.00 | 0.00 | 0.00 | 66 | 1013.3 |
| 20260902073344 | 56 | 140 | 0.0 | 0.0 | 0.00 | 0.00 | 0.00 | 66 | 1013.4 |
| 20260902071843 | 57 | 141 | 0.0 | 1.0 | 0.00 | 0.00 | 0.00 | 65 | 1013.4 |
| 20260902070344 | 57 | 205 | 0.0 | 0.0 | 0.00 | 0.00 | 0.00 | 64 | 1013.3 |
| 20260902064840 | 58 | 205 | 0.0 | 0.0 | 0.00 | 0.00 | 0.00 | 62 | 1013.3 |
| 20260902063340 | 60 | 270 | 0.0 | 0.0 | 0.00 | 0.00 | 0.00 | 59 | 1013.3 |
| 20260902061840 | 61 | 266 | 0.0 | 0.0 | 0.00 | 0.00 | 0.00 | 58 | 1013.4 |
| 20260902061728 | 61 | 269 | 0.0 | 1.0 | 0.00 | 0.00 | 0.00 | 57 | 1013.5 |
| 20260902054840 | 62 | 266 | 0.0 | 0.0 | 0.00 | 0.00 | 0.00 | 56 | 1013.6 |
| 20260902054041 | 62 | 249 | 0.0 | 1.0 | 0.00 | 0.00 | 0.00 | 54 | 1013.8 |
| 20260902051841 | 62 | 247 | 0.0 | 0.0 | 0.00 | 0.00 | 0.00 | 54 | 1013.8 |
| 20260902050340 | 63 | 247 | 0.0 | 0.0 | 0.00 | 0.00 | 0.00 | 53 | 1013.9 |
| 20260902045539 | 63 | 262 | 1.0 | 4.0 | 0.00 | 0.00 | 0.00 | 52 | 1014.0 |
| 20260902043338 | 63 | 318 | 1.0 | 4.0 | 0.00 | 0.00 | 0.00 | 51 | 1014.1 |
| 20260902041836 | 63 | 251 | 0.0 | 0.0 | 0.00 | 0.00 | 0.00 | 50 | 1014.0 |
| 20260902040334 | 64 | 276 | 0.0 | 5.0 | 0.00 | 0.00 | 0.00 | 50 | 1013.9 |
| 20260902034835 | 64 | 271 | 0.0 | 5.0 | 0.00 | 0.00 | 0.00 | 49 | 1013.6 |